Location: Albany
(35.0170°S, 117.8920°E)
Time: 16:28:17
(UTC+08:00)

Explorer 11/Cluster Stage 4 - Pass Details

Date: 25 January 2021
Orbit: 467 x 1257 km, 28.8° (Epoch: 02 March)

Event Time Altitude Azimuth Distance (km) Brightness Sun altitude
Rises 06:44:44 0° 324° (NW) 3,882 9.7 15.5°
Reaches altitude 10° 06:48:39 10° 341° (NNW) 2,778 9.1 16.3°
Maximum altitude 06:52:54 18° 21° (NNE) 2,092 9.0 17.2°
Drops below altitude 10° 06:56:41 10° 61° (ENE) 2,414 10.0 17.9°
Sets 06:59:45 0° 80° (E) 3,188 11.0 18.5°
